Regional Weather Roundup
Issued by NWS Jackson, KY

Home | Current Version | Previous Version | Graphics & Text | Print | Product List | Glossary On
Versions: 1 2 3 4 5 6 7 8 9 10 11 12 13 14 15 16 17 18 19 20 21 22 23 24 25 26 27 28 29 30 31 32 33 34 35 36 37 38 39 40 41 42 43 44 45 46 47 48 49 50
057
ASUS43 KJKL 110010
RWRJKL

EAST KENTUCKY HOURLY WEATHER ROUNDUP
NATIONAL WEATHER SERVICE JACKSON KY
700 PM EST WED FEB 10 2016

NOTE: "FAIR" INDICATES FEW OR NO CLOUDS BELOW 12,000 FEET WITH
NO SIGNIFICANT WEATHER AND/OR OBSTRUCTIONS TO VISIBILITY.

* THESE REPORTS ARE NOT UNDER NWS QUALITY CONTROL AND MAY NOT
  REPORT WEATHER SUCH AS PRECIPITATION AND FOG.

KYZ079-080-083-085-087-088-110-112-115-119-120-110100
...EASTERN KENTUCKY...

CITY           SKY/WX    TMP DP  RH WIND       PRES   REMARKS
JACKSON        CLOUDY    17   7  64 VRB5      30.06R WCI  10
6HR MIN TEMP:  16; 6HR MAX TEMP:  20; 6HR PCP: TRACE;

LONDON         PTCLDY    18   7  62 W3        30.09R
6HR MIN TEMP:  17; 6HR MAX TEMP:  19; 6HR PCP: TRACE;

SOMERSET*      CLOUDY    21   9  58 W7        30.13R WCI  13
MONTICELLO*    CLOUDY    23  11  60 W13G22    30.13R WCI  11
6HR MIN TEMP:  17; 6HR MAX TEMP:  23; 6HR PCP: TRACE;

WILLIAMSBURG*  PTCLDY    21   9  58 CALM      30.10R
MIDDLESBORO*   MOCLDY    22   8  54 CALM      30.09R
6HR MIN TEMP:  22; 6HR MAX TEMP:  26;

HARLAN APT*      N/A     18   7  62 CALM      30.06R
HAZARD APT*    CLOUDY    18   7  62 W9        30.08R WCI   6
BLACK MTN*       N/A      3   1  92 W1          N/A
BIG SANDY*     CLOUDY    18   6  59 NW10      30.06R WCI   6
6HR MIN TEMP:  18; 6HR MAX TEMP:  21;

MOREHEAD APT*  CLOUDY    18   7  62 SW6       30.10R WCI   9
$$

KYZ035-036-041-042-044-050-067-078-099-110100
...CENTRAL KENTUCKY...

CITY           SKY/WX    TMP DP  RH WIND       PRES   REMARKS
MT STERLING*   CLOUDY    18   9  68 W8        30.11R WCI   7
DANVILLE*      CLOUDY    19   9  63 W3        30.11R
RICHMOND*      CLOUDY    18   7  62 W3        30.10R
LEXINGTON      CLOUDY    16   6  65 W6        30.09R WCI   7
6HR MIN TEMP:  16; 6HR MAX TEMP:  19; 6HR PCP: TRACE;

FRANKFORT      PTCLDY    19   6  57 W6        30.10R WCI  11
6HR MIN TEMP:  17; 6HR MAX TEMP:  21;

$$

KYZ091>093-OHZ055-061-077-WVZ005-015-034-035-042-110100
...SOUTHERN OHIO/WEST VIRGINIA...

CITY           SKY/WX    TMP DP  RH WIND       PRES   REMARKS
COVINGTON      CLOUDY    17   5  59 W6G18     30.07R WCI   9
COLUMBUS       CLOUDY    16   6  65 W14       30.02R WCI   2
DAYTON         CLOUDY    14   6  70 W13       30.05R WCI   0
WILMINGTON     CLOUDY    14   4  64 W15       30.04R WCI  -1
HUNTINGTON     CLOUDY    18   6  59 W9        30.07R WCI   7
CHARLESTON     FLURRIES  20   8  60 W13G21    30.02R WCI   7
PINEVILLE*     LGT SNOW  18  11  75 MISG      30.01R
BECKLEY        LGT SNOW  13   7  77 W9        29.89R WCI   1
$$

VAZ002-007-008-TNZ017-027-036-066-071-110100
...SOUTHWEST VIRGINIA/EAST TENNESSEE...

CITY           SKY/WX    TMP DP  RH WIND       PRES   REMARKS
BRISTOL        MOCLDY    22   6  50 W8        30.02R WCI  12
KNOXVILLE      CLOUDY    27   8  44 SW15      30.10  WCI  15
OAK RIDGE      CLOUDY    28   8  43 W6        30.12R WCI  22
CROSSVILLE     CLOUDY    22   8  55 W9        30.05S WCI  12
NASHVILLE      LGT SNOW  25  20  81 W6        30.19R VSB 1   WCI  18
$$

...KEY TO REMARKS...
VSB - VISIBILITY IN MILES
WCI - WIND CHILL INDEX
HX  - HEAT INDEX

$$




USA.gov is the U.S. government's official web portal to all federal, state and local government web resources and services.